[[{"header":{"parameterUnit":"m.s-1","parameterCategory":1,"la1":30.2991,"la2":30.254,"lo1":-89.0895,"lo2":-89.0444,"dy":0.0017,"dx":0.0017,"nx":28,"ny":28,"refTime":"2023-09-16T21:00:00:Z","depth":0,"parameterNumber":2,"parameterNumberName":"U-component_of_WINDS"},"data":[0,0,0,0,0,0,0,0,0,0,0,0,0,0,0,0,0,0,0,0,0,0,0,0,0,0,0,0,0,0,0,0,0,0,0,0,0,0,0,0,0,0,0,0,0,0,0,0,0,0,0,0,0,0,0,0,0,0,2.5472,2.5472,0,2.5468,2.5468,2.5468,2.5341,2.5338,2.5335,2.5332,2.5329,2.5332,2.5335,0,0,0,0,0,0,0,0,0,0,0,0,0,2.537,2.5372,2.5472,2.5472,2.5472,2.5468,2.5468,2.5468,2.5342,2.5338,2.5334,2.533,2.5328,2.5331,2.5335,0,0,0,0,0,0,0,0,0,0,0,0,0,2.5395,2.5373,2.5472,2.5408,2.5403,2.5468,2.5468,2.5468,2.5343,2.5338,2.5333,2.5328,2.5327,2.5331,2.5335,2.5462,0,0,2.5349,2.5351,0,0,0,0,0,0,0,0,2.5394,2.5399,2.5418,2.5413,2.5407,2.54,2.5431,2.5466,2.5344,2.5366,2.5332,2.5326,2.5357,2.5358,2.5368,2.5461,2.5461,2.535,2.5352,2.5354,2.5355,0,0,0,0,0,0,0,2.5392,2.5398,2.547,2.5418,2.5411,2.538,2.5378,2.5437,2.5389,2.5363,2.5354,2.5355,2.5353,2.5364,2.5367,2.5461,2.5349,2.5353,2.5356,2.5358,2.5656,2.5661,0,0,0,0,0,0,2.5399,2.5398,2.547,2.547,2.5388,2.5386,2.5384,2.5407,2.5388,2.538,2.536,2.5349,2.5359,2.5362,2.5367,2.5512,2.5354,2.5358,2.5361,2.5651,2.5658,2.5663,0,0,0,0,0,0,2.5397,2.5407,2.547,2.5431,2.5437,2.5393,2.542,2.541,2.5421,2.5385,2.5376,2.5381,2.5355,2.5361,2.5439,2.5511,2.536,2.5364,2.5645,2.5653,2.566,2.5805,0,0,0,0,0,0,2.5395,2.5407,2.5454,2.5433,2.544,2.5543,2.5425,2.5413,2.5429,2.5416,2.5402,2.5395,2.5352,2.5433,2.5443,2.5514,2.5368,2.5638,2.5649,2.5658,2.5794,2.5817,2.5837,0,0,0,0,0,2.5392,2.5496,2.5458,2.5467,2.5498,2.5547,2.5551,2.5499,2.5436,2.5483,2.5459,2.5396,2.5501,2.5442,2.5452,2.5526,2.5634,2.5646,2.5657,2.5784,2.5813,2.5837,0,0,0,0,0,0,2.5527,2.5492,2.5449,2.5549,2.5552,2.5526,2.5584,2.5531,2.5552,2.5538,2.5473,2.5471,2.556,2.555,2.5485,2.5646,2.5556,2.5571,2.5649,2.5676,2.5697,2.5697,2.5372,0,0,0,0,0,2.5568,2.5611,2.5578,2.567,2.5673,2.5629,2.5648,2.5608,2.5608,2.5609,2.5591,2.5594,2.5627,2.5651,2.568,2.5792,2.5787,2.5848,2.5869,2.5887,2.59,2.5958,2.5985,2.5702,2.5702,2.5702,0,0,2.5654,2.564,2.5671,2.5696,2.5694,2.5739,2.563,2.5683,2.5716,2.5617,2.5689,2.5677,2.5675,2.5771,2.5812,2.5766,2.5977,2.5902,2.5917,2.592,2.5973,2.6,2.6024,2.571,2.5709,2.5707,0,0,2.5834,2.5828,2.5903,2.5903,2.59,2.587,2.5888,2.587,2.5857,2.5929,2.5855,2.5893,2.5953,2.5955,2.5964,2.6144,2.6086,2.6155,2.6268,2.6325,2.6347,2.6367,2.6431,2.6454,2.6169,2.6169,2.6169,0,2.5941,2.6006,2.5949,2.6006,2.6019,2.5931,2.6006,2.6009,2.6016,2.6027,2.5975,2.6048,2.6041,2.6135,2.6179,2.619,2.6208,2.6156,2.6349,2.6368,2.6385,2.6445,2.6469,2.6178,2.6177,2.6176,2.6175,0,2.6138,2.6185,2.6246,2.6254,2.6274,2.6341,2.6293,2.632,2.6278,2.6254,2.6327,2.6316,2.6341,2.636,2.632,2.6449,2.6421,2.636,2.6268,2.6421,2.6477,2.6499,2.619,2.6187,2.6184,2.6182,0,0,2.6403,2.6378,2.6401,2.6404,2.6394,2.6429,2.6492,2.6516,2.654,2.6548,2.6598,2.6651,2.6594,2.6605,2.6564,2.6614,2.6757,2.6547,2.6546,2.6586,2.6898,2.6944,2.6971,2.6719,2.6723,2.6726,2.6898,0,2.6576,2.668,2.663,2.6741,2.6783,2.6699,2.6753,2.6754,2.6732,2.6765,2.6741,2.6779,2.6702,2.6707,2.6753,2.673,2.6819,2.6717,2.6765,2.6767,2.6768,2.7,2.7048,2.7211,2.6919,2.6923,2.6926,0,2.6792,2.6808,2.6923,2.6905,2.6921,2.6971,2.6988,2.702,2.7019,2.6999,2.7011,2.6959,2.7018,2.6928,2.7009,2.6941,2.6957,2.6949,2.6954,2.6956,2.6856,2.7008,2.7262,2.7286,2.6959,2.6957,2.6954,0,2.6972,2.7024,2.7098,2.7103,2.7085,2.7121,2.7115,2.7109,2.7126,2.7142,2.7152,2.7175,2.7188,2.7206,2.7161,2.7099,2.7249,2.7154,2.7234,2.7236,2.7269,2.7268,2.7529,2.7281,2.7281,2.7281,2.728,0,2.7171,2.7244,2.7179,2.7226,2.7305,2.7247,2.7327,2.7312,2.7307,2.7349,2.7278,2.7319,2.7257,2.7292,2.7257,2.733,2.7336,2.7322,2.7312,2.7328,2.733,2.7338,2.7325,2.7287,2.7286,2.7284,2.7283,0,2.7386,2.7346,2.7422,2.7397,2.7393,2.7453,2.7432,2.7474,2.7447,2.7501,2.751,2.7469,2.7506,2.7463,2.7497,2.7474,2.7572,2.7545,2.7572,2.7565,2.7647,2.764,2.7922,2.7956,2.7687,2.769,2.7692,0,2.7515,2.7569,2.7551,2.7574,2.7572,2.7609,2.7626,2.7571,2.7592,2.7594,2.7636,2.7667,2.7689,2.7752,2.7725,2.7751,2.7724,2.7821,2.7727,2.7742,2.7725,2.7722,2.7727,2.784,2.7843,2.7846,2.7848,0,2.7748,2.7725,2.7753,2.7774,2.7796,2.781,2.7818,2.7841,2.7783,2.781,2.7847,2.7864,2.7898,2.793,2.7948,2.7941,2.7886,2.7878,2.7897,2.7915,2.7928,2.7921,2.7624,2.7871,2.7869,2.7867,2.7866,2.7865,2.7924,2.7968,2.7962,2.7995,2.7995,2.8004,2.8042,2.802,2.805,2.8073,2.8038,2.8085,2.8081,2.8099,2.8099,2.8135,2.8093,2.8122,2.8129,2.8137,2.815,2.7923,2.8138,2.8137,2.8136,2.8136,2.8135,0,2.8153,2.8145,2.8175,2.8189,2.8215,2.8159,2.8166,2.8191,2.8233,2.8234,2.8257,2.8299,2.833,2.8305,2.833,2.8363,2.8339,2.8372,2.8369,2.8368,2.8185,2.8165,2.8392,2.8392,2.8392,2.8392,2.8392,2.8391,2.8275,2.8347,2.8323,2.8395,2.8385,2.843,2.8438,2.8446,2.8447,2.8497,2.8522,2.8506,2.8497,2.8521,2.8546,2.8538,2.8551,2.8594,2.8577,2.8406,2.8381,2.8357,2.8338,2.8597,2.8597,2.8756,2.8758,2.8759]},{"header":{"parameterUnit":"m.s-1","parameterCategory":1,"la1":30.2991,"la2":30.254,"lo1":-89.0895,"lo2":-89.0444,"dy":0.0017,"dx":0.0017,"nx":28,"ny":28,"refTime":"2023-09-16T21:00:00:Z","depth":0,"parameterNumber":3,"parameterNumberName":"V-component_of_WINDS"},"data":[0,0,0,0,0,0,0,0,0,0,0,0,0,0,0,0,0,0,0,0,0,0,0,0,0,0,0,0,0,0,0,0,0,0,0,0,0,0,0,0,0,0,0,0,0,0,0,0,0,0,0,0,0,0,0,0,0,0,1.3386,1.3389,0,1.3682,1.3685,1.3688,1.3768,1.3766,1.3765,1.3763,1.4067,1.4077,1.4086,0,0,0,0,0,0,0,0,0,0,0,0,0,1.2888,1.2896,1.3385,1.3389,1.3393,1.3681,1.3685,1.3689,1.3769,1.3766,1.3764,1.3762,1.4064,1.4075,1.4087,0,0,0,0,0,0,0,0,0,0,0,0,0,1.3136,1.2899,1.3385,1.3467,1.3477,1.368,1.3685,1.369,1.3769,1.3766,1.3764,1.3761,1.406,1.4074,1.4089,1.4231,0,0,1.4133,1.414,0,0,0,0,0,0,0,0,1.3121,1.3154,1.3451,1.3462,1.3474,1.3685,1.3621,1.3872,1.377,1.3658,1.3763,1.376,1.3942,1.3966,1.4028,1.4245,1.4258,1.4135,1.4143,1.415,1.4154,0,0,0,0,0,0,0,1.3104,1.3142,1.3502,1.3455,1.3469,1.3489,1.3521,1.3669,1.3811,1.3668,1.3674,1.3708,1.3948,1.4013,1.4035,1.4263,1.4134,1.4147,1.4156,1.4162,1.461,1.4613,0,0,0,0,0,0,1.3073,1.3127,1.3493,1.3511,1.3287,1.35,1.3536,1.362,1.381,1.3836,1.371,1.3711,1.399,1.4018,1.4046,1.4225,1.415,1.4163,1.4172,1.4607,1.4611,1.4614,0,0,0,0,0,0,1.3062,1.3105,1.3481,1.3321,1.337,1.3511,1.3605,1.3627,1.3693,1.3842,1.3868,1.3751,1.3989,1.4026,1.4184,1.4237,1.417,1.4183,1.4603,1.4608,1.4613,1.4584,0,0,0,0,0,0,1.3047,1.31,1.3156,1.3322,1.3379,1.3614,1.3608,1.3635,1.3718,1.3721,1.3887,1.3912,1.399,1.4162,1.4199,1.4256,1.4194,1.4599,1.4606,1.4611,1.4581,1.4587,1.4592,0,0,0,0,0,1.3029,1.3137,1.3159,1.3203,1.3452,1.3617,1.365,1.3737,1.3722,1.3779,1.3874,1.3907,1.4224,1.4177,1.422,1.4282,1.4597,1.4604,1.4611,1.4578,1.4586,1.4592,0,0,0,0,0,0,1.2976,1.316,1.3187,1.3351,1.3468,1.363,1.3706,1.3742,1.3866,1.3864,1.3967,1.4003,1.4154,1.4234,1.4178,1.4429,1.4411,1.4427,1.4372,1.438,1.4386,1.4365,1.4207,0,0,0,0,0,1.2983,1.3102,1.3257,1.3387,1.3444,1.3564,1.364,1.3696,1.3821,1.3871,1.3978,1.4098,1.4225,1.4307,1.4432,1.4592,1.4629,1.4655,1.466,1.4665,1.4678,1.4767,1.4781,1.4638,1.4638,1.4638,0,0,1.2999,1.3115,1.3184,1.3379,1.3476,1.3597,1.3605,1.3733,1.3824,1.3891,1.4047,1.4129,1.427,1.4429,1.4504,1.45,1.4725,1.4674,1.4676,1.4687,1.4776,1.4789,1.4801,1.4643,1.4642,1.4641,0,0,1.3092,1.3191,1.331,1.3406,1.3552,1.3631,1.3659,1.3816,1.3873,1.4031,1.4083,1.4191,1.4408,1.4506,1.4584,1.4708,1.4743,1.4746,1.4777,1.4863,1.4874,1.4885,1.493,1.4945,1.4758,1.4758,1.4758,0,1.3094,1.3278,1.3366,1.3492,1.3575,1.3639,1.376,1.3849,1.4029,1.4085,1.4076,1.4348,1.4448,1.463,1.466,1.4721,1.4756,1.4729,1.4866,1.4877,1.4888,1.4932,1.4949,1.4758,1.4758,1.4758,1.4758,0,1.3274,1.34,1.3479,1.3649,1.3742,1.3864,1.397,1.4053,1.4099,1.4179,1.4337,1.4458,1.4608,1.4655,1.4703,1.4844,1.4837,1.4845,1.483,1.49,1.4943,1.496,1.4757,1.4757,1.4757,1.4757,0,0,1.3345,1.3559,1.3587,1.3664,1.3829,1.3928,1.4052,1.4198,1.4267,1.4387,1.4494,1.4673,1.4682,1.477,1.4829,1.4904,1.4995,1.4904,1.4909,1.4917,1.5157,1.5151,1.5169,1.5017,1.5021,1.5024,1.5146,0,1.3458,1.3682,1.3763,1.3948,1.4065,1.4126,1.4234,1.4346,1.4422,1.4532,1.4617,1.4743,1.4744,1.4798,1.4875,1.4967,1.5045,1.496,1.5118,1.5123,1.5083,1.5191,1.5186,1.5295,1.5163,1.5166,1.5168,0,1.3621,1.3742,1.3938,1.4086,1.4138,1.4234,1.4373,1.4477,1.4605,1.4655,1.4751,1.4804,1.4936,1.491,1.5092,1.5032,1.5101,1.5155,1.5162,1.5182,1.5151,1.5215,1.5332,1.5349,1.5195,1.5193,1.5191,0,1.3653,1.3865,1.401,1.4074,1.425,1.4315,1.4391,1.4516,1.4598,1.4719,1.4773,1.4907,1.4981,1.5084,1.5171,1.5144,1.5345,1.5327,1.539,1.5388,1.5432,1.5429,1.5563,1.5473,1.5473,1.5473,1.5472,0,1.3773,1.389,1.4026,1.4115,1.4248,1.4339,1.4468,1.4548,1.4657,1.4762,1.4822,1.4919,1.5028,1.5139,1.5208,1.5348,1.5381,1.5425,1.5442,1.5421,1.5415,1.5469,1.5464,1.5477,1.5476,1.5475,1.5475,0,1.3833,1.3928,1.409,1.4241,1.4282,1.4373,1.4504,1.4592,1.4669,1.4801,1.4837,1.4959,1.5092,1.5189,1.5361,1.5407,1.5557,1.5574,1.5515,1.5524,1.5582,1.5576,1.5758,1.5786,1.5675,1.5676,1.5677,0,1.3904,1.3995,1.4156,1.423,1.4306,1.4425,1.4508,1.46,1.4684,1.4834,1.4904,1.5041,1.5156,1.5366,1.547,1.5601,1.5622,1.5677,1.5643,1.5618,1.5624,1.5618,1.5628,1.5682,1.5683,1.5684,1.5684,0,1.4019,1.4061,1.4178,1.4312,1.4409,1.4518,1.4629,1.4686,1.4797,1.4888,1.5025,1.5114,1.5289,1.5424,1.5565,1.5644,1.5683,1.5693,1.5715,1.5696,1.5658,1.568,1.5529,1.569,1.5689,1.5689,1.5688,1.5688,1.4088,1.4171,1.4297,1.4425,1.4517,1.4618,1.4708,1.4796,1.4911,1.5061,1.5107,1.5249,1.5371,1.5565,1.5644,1.5756,1.5754,1.5785,1.5794,1.5801,1.58,1.5637,1.5782,1.5782,1.5782,1.5782,1.5782,0,1.4207,1.429,1.4407,1.4559,1.4659,1.4685,1.4807,1.489,1.5013,1.5124,1.5235,1.5391,1.5522,1.5634,1.577,1.5837,1.5858,1.587,1.5867,1.5884,1.5794,1.5762,1.585,1.585,1.585,1.585,1.585,1.585,1.4281,1.4424,1.448,1.4668,1.4751,1.489,1.4957,1.505,1.5139,1.531,1.5419,1.5491,1.5602,1.5746,1.5866,1.5896,1.5944,1.5951,1.5985,1.5899,1.5891,1.5883,1.5853,1.596,1.596,1.6067,1.6067,1.6068]}]]